Terug naar catalogus

STARLINK-32113

ActiefCommunicatieVLEO
NORAD 60282·PAYLOAD·🇺🇸 United States

Gelanceerd Jul 28, 2024 vanaf Cape Canaveral Space Force Station

Loading…

Volgende Passages (komende 24 uur)

TLE

VersSource: CelesTrak SupGP

Epoch: Sep 14, 2026, 21:10 UTC

1 60282C 24132E   26257.88243056 -.00016138  00000+0 -47754-3 0  2575
2 60282  53.1560 251.7430 0001489  87.6577 269.6394 15.34349301    17

Volg STARLINK-32113 in realtime met AllMySat

Download on the App Store